WE8M Weather Reports


time (UTC)temp
C
wind
direction
speed
KPH
gust
KPH
rain 1hr
cm
rain 24hr
cm
rain mn
cm
humidity
%
barometer
mb
20260508200309 21 260 12.9 22.5 0.00 0.00 0.00 40 1010.9
20260508195805 21 225 16.1 27.4 0.00 0.00 0.00 42 1011.0
20260508195305 21 221 12.9 17.7 0.00 0.00 0.00 40 1011.0
20260508194758 21 189 16.1 22.5 0.00 0.00 0.00 41 1010.8
20260508194255 21 229 9.7 16.1 0.00 0.00 0.00 37 1011.1
20260508193753 21 245 17.7 22.5 0.00 0.00 0.00 40 1011.3
20260508193249 20 241 9.7 17.7 0.00 0.00 0.00 45 1011.5
20260508192745 20 223 24.1 27.4 0.00 0.00 0.00 39 1011.6
20260508192242 21 184 16.1 30.6 0.00 0.00 0.00 40 1011.4
20260508191740 21 202 14.5 24.1 0.00 0.00 0.00 37 1011.8
20260508191237 21 180 12.9 20.9 0.00 0.00 0.00 43 1011.7
20260508190734 20 213 14.5 22.5 0.00 0.00 0.00 41 1011.6
20260508190230 21 215 17.7 22.5 0.00 0.00 0.00 42 1012.0
20260508185727 21 187 16.1 17.7 0.00 0.00 0.00 38 1012.0
20260508185224 22 216 11.3 16.1 0.00 0.00 0.00 39 1012.1
20260508184721 21 218 14.5 16.1 0.00 0.00 0.00 40 1012.1
20260508184218 21 240 9.7 24.1 0.00 0.00 0.00 41 1012.3
20260508183715 21 206 9.7 14.5 0.00 0.00 0.00 41 1012.3
20260508183211 20 224 6.4 12.9 0.00 0.00 0.00 43 1012.4
20260508182707 20 250 9.7 16.1 0.00 0.00 0.00 42 1012.4
20260508182204 20 180 12.9 16.1 0.00 0.00 0.00 44 1012.7
20260508181700 20 227 8.0 12.9 0.00 0.00 0.00 44 1012.7
20260508181157 20 209 12.9 14.5 0.00 0.00 0.00 41 1012.7
20260508180654 20 237 16.1 20.9 0.00 0.00 0.00 41 1012.8
20260508180151 20 225 8.0 17.7 0.00 0.00 0.00 46 1012.8
20260508175647 20 217 12.9 17.7 0.00 0.00 0.00 40 1013.0
20260508175144 20 273 3.2 17.7 0.00 0.00 0.00 44 1012.9
20260508174642 20 200 9.7 20.9 0.00 0.00 0.00 43 1013.1
20260508174138 20 190 12.9 20.9 0.00 0.00 0.00 40 1013.2
20260508173635 20 216 9.7 16.1 0.00 0.00 0.00 45 1013.3
20260508173131 20 227 12.9 27.4 0.00 0.00 0.00 42 1013.6
20260508172628 19 213 17.7 24.1 0.00 0.00 0.00 42 1013.6
20260508172125 19 230 17.7 20.9 0.00 0.00 0.00 42 1013.7
20260508171621 19 210 11.3 16.1 0.00 0.00 0.00 43 1013.9
20260508171118 19 233 16.1 24.1 0.00 0.00 0.00 42 1014.0
20260508170615 19 217 16.1 33.8 0.00 0.00 0.00 44 1013.9
20260508170113 19 200 12.9 20.9 0.00 0.00 0.00 42 1014.0
20260508165609 19 209 16.1 20.9 0.00 0.00 0.00 44 1014.2
20260508165107 19 189 19.3 25.7 0.00 0.00 0.00 46 1014.1
20260508164603 19 192 12.9 17.7 0.00 0.00 0.00 44 1014.2
20260508164100 19 195 14.5 20.9 0.00 0.00 0.00 44 1014.4
20260508163557 19 206 9.7 17.7 0.00 0.00 0.00 45 1014.3
20260508163054 19 254 11.3 20.9 0.00 0.00 0.00 46 1014.5
20260508162551 19 222 9.7 20.9 0.00 0.00 0.00 46 1014.3
20260508162048 18 218 8.0 12.9 0.00 0.00 0.00 48 1014.5
20260508161545 18 239 9.7 14.5 0.00 0.00 0.00 51 1014.5
20260508161042 18 220 12.9 17.7 0.00 0.00 0.00 47 1014.8
20260508160540 18 196 9.7 17.7 0.00 0.00 0.00 50 1014.4
20260508160037 18 196 11.3 20.9 0.00 0.00 0.00 50 1014.6
20260508155534 18 174 11.3 14.5 0.00 0.00 0.00 48 1014.7
20260508155031 18 239 14.5 17.7 0.00 0.00 0.00 47 1014.8
20260508154528 18 209 14.5 20.9 0.00 0.00 0.00 45 1014.9
20260508154025 18 195 9.7 17.7 0.00 0.00 0.00 48 1015.0
20260508153522 18 247 14.5 22.5 0.00 0.00 0.00 46 1015.1
20260508153018 18 215 12.9 20.9 0.00 0.00 0.00 47 1015.1
20260508152515 17 209 8.0 12.9 0.00 0.00 0.00 49 1015.2
20260508152011 17 220 16.1 20.9 0.00 0.00 0.00 47 1015.3
20260508151508 17 231 9.7 16.1 0.00 0.00 0.00 49 1015.2
20260508151004 17 240 17.7 20.9 0.00 0.00 0.00 47 1015.2
20260508150501 16 225 14.5 22.5 0.00 0.00 0.00 47 1015.2
20260508145956 17 280 19.3 24.1 0.00 0.00 0.00 47 1015.3
20260508145454 16 218 12.9 22.5 0.00 0.00 0.00 47 1015.4
20260508144950 16 254 9.7 16.1 0.00 0.00 0.00 48 1015.4
20260508144448 16 235 19.3 24.1 0.00 0.00 0.00 46 1015.5
20260508143945 16 255 14.5 22.5 0.00 0.00 0.00 46 1015.4
20260508143443 16 211 12.9 20.9 0.00 0.00 0.00 47 1015.4
20260508142939 16 246 9.7 22.5 0.00 0.00 0.00 52 1015.3
20260508142436 16 213 11.3 20.9 0.00 0.00 0.00 51 1015.3
20260508141932 16 233 9.7 14.5 0.00 0.00 0.00 51 1015.5
20260508141429 15 222 11.3 14.5 0.00 0.00 0.00 51 1015.6
20260508140927 15 210 9.7 22.5 0.00 0.00 0.00 52 1015.7
20260508140424 15 227 9.7 12.9 0.00 0.00 0.00 53 1015.4
20260508135919 14 213 9.7 14.5 0.00 0.00 0.00 53 1015.6
20260508135417 14 222 9.7 12.9 0.00 0.00 0.00 55 1015.6
20260508134913 13 198 6.4 11.3 0.00 0.00 0.00 58 1015.5
20260508134409 13 208 6.4 11.3 0.00 0.00 0.00 58 1015.5
20260508133906 12 215 4.8 12.9 0.00 0.00 0.00 60 1015.6
20260508133404 11 202 6.4 11.3 0.00 0.00 0.00 61 1015.9
20260508132900 11 207 4.8 12.9 0.00 0.00 0.00 62 1015.9
20260508132359 11 218 6.4 11.3 0.00 0.00 0.00 63 1015.6
20260508131855 11 212 8.0 14.5 0.00 0.00 0.00 62 1015.6
20260508131350 11 214 6.4 12.9 0.00 0.00 0.00 63 1015.7
20260508130847 11 205 6.4 16.1 0.00 0.00 0.00 63 1015.9
20260508130344 11 209 9.7 12.9 0.00 0.00 0.00 64 1015.6
20260508125840 10 214 6.4 9.7 0.00 0.00 0.00 64 1015.9
20260508125336 10 214 6.4 11.3 0.00 0.00 0.00 63 1015.6
20260508124834 10 221 6.4 9.7 0.00 0.00 0.00 66 1015.6
20260508124331 10 193 9.7 11.3 0.00 0.00 0.00 65 1015.7
20260508123829 10 222 6.4 9.7 0.00 0.00 0.00 66 1015.7
20260508123328 9 191 4.8 9.7 0.00 0.00 0.00 66 1015.4
20260508122824 9 213 6.4 14.5 0.00 0.00 0.00 66 1015.3
20260508122321 9 214 6.4 12.9 0.00 0.00 0.00 68 1015.6
20260508121818 8 201 6.4 16.1 0.00 0.00 0.00 68 1015.5
20260508121316 8 212 8.0 11.3 0.00 0.00 0.00 69 1015.6
20260508120813 8 188 8.0 9.7 0.00 0.00 0.00 67 1015.5
20260508120311 8 189 3.2 12.9 0.00 0.00 0.00 66 1015.2
20260508115808 8 207 6.4 6.4 0.00 0.00 0.00 69 1015.3
20260508115306 8 199 8.0 9.7 0.00 0.00 0.00 67 1015.1
20260508114802 8 186 8.0 11.3 0.00 0.00 0.00 66 1015.3
20260508114259 8 197 14.5 16.1 0.00 0.00 0.00 65 1015.3
20260508113755 8 195 4.8 6.4 0.00 0.00 0.00 68 1015.1
20260508113254 7 209 4.8 11.3 0.00 0.00 0.00 67 1015.3
20260508112750 7 240 8.0 11.3 0.00 0.00 0.00 67 1015.2
20260508112247 7 194 4.8 9.7 0.00 0.00 0.00 70 1015.1
20260508111743 7 178 6.4 9.7 0.00 0.00 0.00 69 1015.1
20260508111241 7 181 6.4 9.7 0.00 0.00 0.00 68 1015.1
20260508110738 7 186 4.8 9.7 0.00 0.00 0.00 69 1015.1
20260508110236 7 195 4.8 6.4 0.00 0.00 0.00 69 1015.2
20260508105735 7 181 3.2 4.8 0.00 0.00 0.00 68 1015.0
20260508105233 7 205 1.6 4.8 0.00 0.00 0.00 69 1015.1
20260508104730 7 182 4.8 6.4 0.00 0.00 0.00 69 1014.9
20260508104227 7 179 6.4 9.7 0.00 0.00 0.00 68 1014.8
20260508103724 7 188 4.8 9.7 0.00 0.00 0.00 69 1014.9
20260508103221 7 207 6.4 6.4 0.00 0.00 0.00 69 1014.5
20260508102718 6 185 4.8 9.7 0.00 0.00 0.00 69 1014.9
20260508102216 6 209 6.4 9.7 0.00 0.00 0.00 69 1014.8
20260508101713 6 194 4.8 6.4 0.00 0.00 0.00 69 1014.8
20260508101211 6 207 4.8 6.4 0.00 0.00 0.00 70 1014.8
20260508100708 6 166 3.2 6.4 0.00 0.00 0.00 69 1014.8
20260508100206 6 202 6.4 9.7 0.00 0.00 0.00 69 1014.7
20260508095701 6 200 6.4 9.7 0.00 0.00 0.00 68 1014.9
20260508095159 7 174 6.4 6.4 0.00 0.00 0.00 68 1014.8
20260508094655 7 193 4.8 6.4 0.00 0.00 0.00 67 1014.8
20260508094153 7 175 4.8 6.4 0.00 0.00 0.00 68 1015.0
20260508093650 6 172 4.8 6.4 0.00 0.00 0.00 69 1014.6
20260508093148 7 178 4.8 6.4 0.00 0.00 0.00 68 1014.8
20260508092644 6 185 6.4 6.4 0.00 0.00 0.00 68 1014.6
20260508092143 6 179 3.2 4.8 0.00 0.00 0.00 70 1015.0
20260508091640 6 188 3.2 4.8 0.00 0.00 0.00 71 1014.9
20260508091137 7 190 4.8 6.4 0.00 0.00 0.00 69 1014.9
20260508090635 7 196 1.6 6.4 0.00 0.00 0.00 68 1014.7
20260508090132 7 200 6.4 9.7 0.00 0.00 0.00 67 1014.8
20260508085628 7 195 4.8 9.7 0.00 0.00 0.00 66 1014.8
20260508085126 7 192 4.8 6.4 0.00 0.00 0.00 67 1014.6
20260508084621 7 174 3.2 4.8 0.00 0.00 0.00 67 1014.8
20260508084119 7 166 3.2 4.8 0.00 0.00 0.00 67 1014.8
20260508083616 6 177 3.2 4.8 0.00 0.00 0.00 70 1014.7
20260508083113 6 198 3.2 3.2 0.00 0.00 0.00 73 1014.6
20260508082609 6 203 1.6 1.6 0.00 0.00 0.00 74 1014.8
20260508082106 6 197 3.2 4.8 0.00 0.00 0.00 72 1014.6
20260508081604 7 221 3.2 4.8 0.00 0.00 0.00 71 1014.7
20260508081100 7 201 1.6 3.2 0.00 0.00 0.00 69 1014.7
20260508080558 6 187 3.2 4.8 0.00 0.00 0.00 71 1014.6
20260508080055 6 225 3.2 4.8 0.00 0.00 0.00 71 1014.7
20260508075551 6 216 1.6 4.8 0.00 0.00 0.00 72 1014.6
20260508075049 7 198 3.2 4.8 0.00 0.00 0.00 72 1014.7
20260508074546 7 211 4.8 6.4 0.00 0.00 0.00 69 1014.5
20260508074043 6 198 1.6 3.2 0.00 0.00 0.00 70 1014.6
20260508073540 6 204 3.2 6.4 0.00 0.00 0.00 73 1014.6
20260508073038 7 204 4.8 4.8 0.00 0.00 0.00 73 1014.7
20260508072533 7 202 3.2 4.8 0.00 0.00 0.00 71 1014.6
20260508072031 7 200 3.2 4.8 0.00 0.00 0.00 72 1014.8
20260508071528 7 214 3.2 3.2 0.00 0.00 0.00 73 1014.7
20260508071026 6 203 3.2 4.8 0.00 0.00 0.00 73 1014.8
20260508070524 6 207 3.2 3.2 0.00 0.00 0.00 74 1014.7
20260508070022 6 206 3.2 3.2 0.00 0.00 0.00 74 1014.8
20260508065519 6 206 1.6 3.2 0.00 0.00 0.00 75 1014.8
20260508065017 6 207 1.6 3.2 0.00 0.00 0.00 75 1014.8
20260508064514 6 211 1.6 3.2 0.00 0.00 0.00 73 1014.8
20260508064012 6 203 3.2 3.2 0.00 0.00 0.00 76 1014.8
20260508063509 6 195 3.2 3.2 0.00 0.00 0.00 77 1015.1
20260508063007 6 191 1.6 3.2 0.00 0.00 0.00 78 1015.0
20260508062504 6 191 1.6 3.2 0.00 0.00 0.00 76 1015.1
20260508062001 6 187 1.6 3.2 0.00 0.00 0.00 76 1015.1
20260508061459 6 187 1.6 1.6 0.00 0.00 0.00 75 1015.3
20260508060955 7 187 1.6 3.2 0.00 0.00 0.00 74 1015.3
20260508060452 7 186 0.0 1.6 0.00 0.00 0.00 75 1015.1
20260508055948 7 180 1.6 3.2 0.00 0.00 0.00 70 1015.1
20260508055446 7 174 1.6 3.2 0.00 0.00 0.00 69 1014.9
20260508054942 7 173 1.6 3.2 0.00 0.00 0.00 71 1015.0
20260508054439 7 172 1.6 3.2 0.00 0.00 0.00 71 1015.2
20260508053936 7 172 1.6 1.6 0.00 0.00 0.00 71 1015.1
20260508053433 7 172 1.6 1.6 0.00 0.00 0.00 70 1015.1
20260508052931 7 172 1.6 3.2 0.00 0.00 0.00 66 1015.0
20260508052428 7 173 1.6 3.2 0.00 0.00 0.00 67 1015.0
20260508051924 7 173 1.6 1.6 0.00 0.00 0.00 68 1015.1
20260508051420 7 173 1.6 3.2 0.00 0.00 0.00 67 1015.2
20260508050916 7 182 3.2 4.8 0.00 0.00 0.00 67 1015.2
20260508050413 7 212 1.6 3.2 0.00 0.00 0.00 69 1015.2
20260508045909 8 198 3.2 3.2 0.00 0.00 0.00 66 1015.0
20260508045407 8 170 1.6 3.2 0.00 0.00 0.00 64 1015.1
20260508044904 8 194 3.2 3.2 0.00 0.00 0.00 63 1015.2
20260508044401 8 200 4.8 4.8 0.00 0.00 0.00 61 1015.0
20260508043856 8 156 6.4 6.4 0.00 0.00 0.00 63 1015.0
20260508043354 8 181 3.2 4.8 0.00 0.00 0.00 63 1015.2
20260508042850 8 182 3.2 4.8 0.00 0.00 0.00 63 1015.1
20260508042348 8 179 1.6 4.8 0.00 0.00 0.00 64 1014.9
20260508041845 7 201 1.6 3.2 0.00 0.00 0.00 70 1015.0
20260508041341 7 197 1.6 3.2 0.00 0.00 0.00 70 1015.3
20260508040838 8 195 1.6 3.2 0.00 0.00 0.00 68 1015.2
20260508040335 8 195 3.2 3.2 0.00 0.00 0.00 68 1015.0
20260508035833 8 206 3.2 3.2 0.00 0.00 0.00 67 1015.1
20260508035330 8 197 1.6 3.2 0.00 0.00 0.00 66 1015.1
20260508034827 8 180 3.2 4.8 0.00 0.00 0.00 64 1015.0
20260508034324 8 178 3.2 4.8 0.00 0.00 0.00 65 1015.1
20260508033821 7 190 3.2 4.8 0.00 0.00 0.00 69 1015.1
20260508033319 8 204 1.6 3.2 0.00 0.00 0.00 69 1015.3
20260508032816 8 184 3.2 3.2 0.00 0.00 0.00 67 1015.2
20260508032313 8 189 1.6 3.2 0.00 0.00 0.00 65 1015.2
20260508031810 8 165 3.2 4.8 0.00 0.00 0.00 65 1015.2
20260508031307 8 182 1.6 3.2 0.00 0.00 0.00 68 1015.1
20260508030803 7 155 1.6 1.6 0.00 0.00 0.00 69 1015.0
20260508030300 8 167 1.6 1.6 0.00 0.00 0.00 69 1015.1
20260508025757 8 163 1.6 1.6 0.00 0.00 0.00 68 1015.1
20260508025254 8 159 1.6 1.6 0.00 0.00 0.00 69 1015.1
20260508024750 8 159 1.6 1.6 0.00 0.00 0.00 68 1015.1
20260508024247 7 212 1.6 3.2 0.00 0.00 0.00 70 1014.9
20260508023744 7 252 1.6 1.6 0.00 0.00 0.00 73 1015.1
20260508023241 6 281 0.0 1.6 0.00 0.00 0.00 83 1015.1
20260508022737 6 288 0.0 0.0 0.00 0.00 0.00 89 1015.0
20260508022234 6 288 0.0 0.0 0.00 0.00 0.00 87 1015.0
20260508021731 6 288 0.0 0.0 0.00 0.00 0.00 87 1015.3
20260508021226 6 288 0.0 0.0 0.00 0.00 0.00 84 1015.1
20260508020723 6 288 0.0 0.0 0.00 0.00 0.00 84 1015.2
20260508020220 7 288 0.0 0.0 0.00 0.00 0.00 84 1014.9
20260508015718 7 288 0.0 0.0 0.00 0.00 0.00 82 1014.9
20260508015215 7 288 0.0 0.0 0.00 0.00 0.00 82 1014.8
20260508014711 7 288 0.0 0.0 0.00 0.00 0.00 80 1015.0
20260508014208 7 288 0.0 0.0 0.00 0.00 0.00 75 1015.0
20260508013704 7 288 0.0 0.0 0.00 0.00 0.00 75 1015.0
20260508013200 8 288 0.0 0.0 0.00 0.00 0.00 75 1014.9
20260508012658 8 288 0.0 0.0 0.00 0.00 0.00 77 1014.6
20260508012155 8 288 0.0 0.0 0.00 0.00 0.00 76 1015.2
20260508011653 8 288 0.0 0.0 0.00 0.00 0.00 76 1014.7
20260508011150 8 288 0.0 0.0 0.00 0.00 0.00 81 1014.7
20260508010647 9 288 0.0 0.0 0.00 0.00 0.00 79 1015.0
20260508010145 9 287 0.0 0.0 0.00 0.00 0.00 74 1014.7
20260508005642 10 288 0.0 0.0 0.00 0.00 0.00 69 1014.7
20260508005138 10 287 0.0 0.0 0.00 0.00 0.00 66 1014.8
20260508004634 10 288 0.0 0.0 0.00 0.00 0.00 61 1014.6
20260508004131 10 290 0.0 0.0 0.00 0.00 0.00 59 1014.7
20260508003627 10 290 0.0 0.0 0.00 0.00 0.00 57 1014.6
20260508003125 10 289 1.6 1.6 0.00 0.00 0.00 57 1014.6
20260508002621 11 290 0.0 1.6 0.00 0.00 0.00 54 1014.6
20260508002119 11 291 0.0 0.0 0.00 0.00 0.00 53 1014.6
20260508001614 11 296 0.0 0.0 0.00 0.00 0.00 53 1014.5
20260508001110 12 296 0.0 1.6 0.00 0.00 0.00 55 1014.5
20260508000606 12 298 0.0 0.0 0.00 0.00 0.00 48 1014.4
20260508000104 12 311 0.0 1.6 0.00 0.00 0.00 41 1014.4
20260507235600 13 333 0.0 1.6 0.00 0.00 0.00 42 1014.2
20260507235058 13 327 1.6 3.2 0.00 0.00 0.00 41 1014.2
20260507234554 13 318 1.6 1.6 0.00 0.00 0.00 40 1014.1
20260507234051 13 320 0.0 1.6 0.00 0.00 0.00 39 1014.3
20260507233547 14 326 3.2 4.8 0.00 0.00 0.00 39 1014.1
20260507233047 15 332 3.2 3.2 0.00 0.00 0.00 36 1014.1
20260507232542 15 335 1.6 3.2 0.00 0.00 0.00 37 1013.9
20260507232039 15 337 0.0 4.8 0.00 0.00 0.00 35 1014.2
20260507231536 15 302 0.0 3.2 0.00 0.00 0.00 35 1014.3
20260507231034 14 333 3.2 9.7 0.00 0.00 0.00 36 1014.4
20260507230530 15 310 3.2 4.8 0.00 0.00 0.00 38 1014.3
20260507230027 15 227 1.6 3.2 0.00 0.00 0.00 38 1014.4
20260507225521 15 311 1.6 6.4 0.00 0.00 0.00 36 1014.1
20260507225018 14 358 1.6 6.4 0.00 0.00 0.00 37 1014.2
20260507224514 14 253 1.6 9.7 0.00 0.00 0.00 41 1014.3
20260507224010 14 330 1.6 11.3 0.00 0.00 0.00 37 1014.2
20260507223507 14 312 8.0 11.3 0.00 0.00 0.00 37 1014.2
20260507223004 14 298 4.8 12.9 0.00 0.00 0.00 38 1014.3
20260507222501 14 350 9.7 14.5 0.00 0.00 0.00 36 1014.4
20260507221957 15 330 6.4 16.1 0.00 0.00 0.00 39 1014.5
20260507221454 15 11 9.7 14.5 0.00 0.00 0.00 42 1014.3
20260507220950 15 272 1.6 11.3 0.00 0.00 0.00 41 1014.5
20260507220448 15 268 6.4 11.3 0.00 0.00 0.00 38 1014.4
20260507215944 15 279 11.3 16.1 0.00 0.00 0.00 40 1014.3
20260507215441 15 331 8.0 17.7 0.00 0.00 0.00 37 1014.3
20260507214938 15 341 1.6 9.7 0.00 0.00 0.00 39 1014.3
20260507214436 15 328 8.0 12.9 0.00 0.00 0.00 39 1014.3
20260507213931 15 339 3.2 4.8 0.00 0.00 0.00 38 1014.4
20260507213428 15 357 4.8 12.9 0.00 0.00 0.00 38 1014.2
20260507212925 15 312 8.0 12.9 0.00 0.00 0.00 36 1014.2
20260507212421 15 5 4.8 11.3 0.00 0.00 0.00 42 1014.2
20260507211918 15 307 9.7 16.1 0.00 0.00 0.00 39 1014.1
20260507211414 15 258 0.0 3.2 0.00 0.00 0.00 38 1014.1
20260507210911 15 345 3.2 14.5 0.00 0.00 0.00 37 1014.3
20260507210408 15 314 11.3 17.7 0.00 0.00 0.00 38 1014.1
20260507205905 16 5 0.0 4.8 0.00 0.00 0.00 39 1014.1
20260507205402 16 344 1.6 3.2 0.00 0.00 0.00 34 1014.2
20260507204858 16 50 0.0 3.2 0.00 0.00 0.00 44 1014.0
20260507204355 15 343 6.4 9.7 0.00 0.00 0.00 47 1014.0
20260507203853 15 328 11.3 14.5 0.00 0.00 0.00 40 1014.2
20260507203350 15 62 3.2 9.7 0.00 0.00 0.00 43 1013.9
20260507202846 15 319 11.3 16.1 0.00 0.00 0.00 40 1014.0
20260507202343 15 14 12.9 20.9 0.00 0.00 0.00 36 1013.9
20260507201838 15 205 1.6 17.7 0.00 0.00 0.00 43 1013.8
20260507201334 15 161 4.8 16.1 0.00 0.00 0.00 38 1014.0
20260507200831 15 242 6.4 12.9 0.00 0.00 0.00 38 1013.9